| time (UTC) | temp F | wind direction | speed MPH | gust MPH | rain 1hr in | rain 24hr in | rain mn in | humidity % | barometer mb |
| 20260504150524 | 72 | 153 | 2.0 | 6.0 | 0.00 | 0.00 | 0.00 | 54 | 1017.0 |
| 20260504140535 | 67 | 156 | 3.0 | 8.0 | 0.00 | 0.00 | 0.00 | 59 | 1017.3 |
| 20260504130526 | 59 | 169 | 4.0 | 8.0 | 0.00 | 0.00 | 0.00 | 69 | 1017.5 |
| 20260504110529 | 53 | 182 | 4.0 | 6.0 | 0.00 | 0.00 | 0.00 | 73 | 1016.4 |
| 20260504100522 | 54 | 173 | 3.0 | 4.0 | 0.00 | 0.00 | 0.00 | 71 | 1016.5 |
| 20260504081529 | 52 | 183 | 1.0 | 2.0 | 0.00 | 0.00 | 0.00 | 77 | 1016.5 |
| 20260504080524 | 53 | 144 | 1.0 | 2.0 | 0.00 | 0.00 | 0.00 | 76 | 1016.4 |
| 20260504050536 | 53 | 154 | 1.0 | 2.0 | 0.00 | 0.00 | 0.00 | 75 | 1017.8 |
| 20260504045551 | 54 | 174 | 1.0 | 2.0 | 0.00 | 0.00 | 0.00 | 74 | 1017.8 |
| 20260504044546 | 52 | 110 | 0.0 | 1.0 | 0.00 | 0.00 | 0.00 | 80 | 1017.8 |
| 20260504043541 | 52 | 155 | 1.0 | 2.0 | 0.00 | 0.00 | 0.00 | 79 | 1017.8 |
| 20260504042536 | 53 | 55 | 1.0 | 2.0 | 0.00 | 0.00 | 0.00 | 78 | 1017.8 |
| 20260504041532 | 53 | 51 | 1.0 | 2.0 | 0.00 | 0.00 | 0.00 | 76 | 1017.8 |
| 20260504040527 | 55 | 29 | 2.0 | 2.0 | 0.00 | 0.00 | 0.00 | 72 | 1017.7 |
| 20260504035522 | 56 | 173 | 2.0 | 3.0 | 0.00 | 0.00 | 0.00 | 69 | 1017.7 |
| 20260504034517 | 56 | 170 | 2.0 | 3.0 | 0.00 | 0.00 | 0.00 | 68 | 1017.8 |
| 20260504033532 | 56 | 177 | 2.0 | 4.0 | 0.00 | 0.00 | 0.00 | 69 | 1017.9 |
| 20260504032527 | 56 | 176 | 2.0 | 3.0 | 0.00 | 0.00 | 0.00 | 69 | 1018.0 |
| 20260504031522 | 56 | 174 | 2.0 | 4.0 | 0.00 | 0.00 | 0.00 | 68 | 1018.2 |
| 20260504030538 | 54 | 167 | 2.0 | 2.0 | 0.00 | 0.00 | 0.00 | 73 | 1018.4 |
| 20260504025533 | 54 | 86 | 0.0 | 1.0 | 0.00 | 0.00 | 0.00 | 76 | 1018.4 |
| 20260504024547 | 54 | 0.0 | 1.0 | 0.00 | 0.00 | 0.00 | 75 | 1018.6 | |
| 20260504023523 | 54 | 52 | 0.0 | 2.0 | 0.00 | 0.00 | 0.00 | 76 | 1018.5 |
| 20260504022517 | 54 | 45 | 0.0 | 1.0 | 0.00 | 0.00 | 0.00 | 72 | 1018.3 |
| 20260504021533 | 54 | 0.0 | 1.0 | 0.00 | 0.00 | 0.00 | 72 | 1018.3 | |
| 20260504020548 | 55 | 0.0 | 0.0 | 0.00 | 0.00 | 0.00 | 70 | 1018.2 | |
| 20260504015544 | 55 | 0.0 | 1.0 | 0.00 | 0.00 | 0.00 | 68 | 1018.1 | |
| 20260504014538 | 55 | 0.0 | 2.0 | 0.00 | 0.00 | 0.00 | 66 | 1018.0 | |
| 20260504013534 | 56 | 42 | 1.0 | 2.0 | 0.00 | 0.00 | 0.00 | 64 | 1017.7 |
| 20260504012529 | 57 | 25 | 0.0 | 2.0 | 0.00 | 0.00 | 0.00 | 64 | 1017.6 |
| 20260504011544 | 57 | 48 | 1.0 | 2.0 | 0.00 | 0.00 | 0.00 | 66 | 1017.5 |
| 20260504010521 | 58 | 0.0 | 0.0 | 0.00 | 0.00 | 0.00 | 66 | 1017.4 | |
| 20260504005534 | 58 | 45 | 1.0 | 2.0 | 0.00 | 0.00 | 0.00 | 64 | 1017.3 |
| 20260504004529 | 60 | 164 | 1.0 | 2.0 | 0.00 | 0.00 | 0.00 | 60 | 1017.4 |
| 20260504003525 | 60 | 0.0 | 0.0 | 0.00 | 0.00 | 0.00 | 56 | 1017.3 | |
| 20260504002520 | 61 | 0.0 | 0.0 | 0.00 | 0.00 | 0.00 | 54 | 1017.4 | |
| 20260504001535 | 62 | 0.0 | 0.0 | 0.00 | 0.00 | 0.00 | 53 | 1017.3 | |
| 20260504000530 | 63 | 100 | 0.0 | 2.0 | 0.00 | 0.00 | 0.00 | 49 | 1017.6 |
| 20260503235526 | 64 | 50 | 1.0 | 2.0 | 0.00 | 0.00 | 0.00 | 47 | 1017.7 |
| 20260503234543 | 64 | 56 | 0.0 | 2.0 | 0.00 | 0.00 | 0.00 | 45 | 1017.7 |
| 20260503233516 | 65 | 70 | 1.0 | 2.0 | 0.00 | 0.00 | 0.00 | 45 | 1017.8 |
| 20260503232531 | 66 | 92 | 0.0 | 2.0 | 0.00 | 0.00 | 0.00 | 42 | 1017.8 |
| 20260503231546 | 66 | 71 | 0.0 | 3.0 | 0.00 | 0.00 | 0.00 | 41 | 1018.0 |
| 20260503230521 | 67 | 143 | 2.0 | 4.0 | 0.00 | 0.00 | 0.00 | 40 | 1018.0 |
| 20260503225536 | 67 | 93 | 1.0 | 3.0 | 0.00 | 0.00 | 0.00 | 40 | 1018.1 |
| 20260503224551 | 67 | 103 | 2.0 | 5.0 | 0.00 | 0.00 | 0.00 | 39 | 1018.1 |
| 20260503223526 | 67 | 46 | 1.0 | 2.0 | 0.00 | 0.00 | 0.00 | 40 | 1018.3 |
| 20260503222522 | 67 | 41 | 1.0 | 3.0 | 0.00 | 0.00 | 0.00 | 40 | 1018.2 |
| 20260503221536 | 67 | 52 | 1.0 | 3.0 | 0.00 | 0.00 | 0.00 | 39 | 1018.4 |
| 20260503220532 | 67 | 50 | 1.0 | 3.0 | 0.00 | 0.00 | 0.00 | 38 | 1018.5 |
| 20260503215526 | 67 | 130 | 2.0 | 6.0 | 0.00 | 0.00 | 0.00 | 40 | 1018.6 |
| 20260503214541 | 67 | 35 | 2.0 | 4.0 | 0.00 | 0.00 | 0.00 | 39 | 1018.7 |
| 20260503213516 | 67 | 348 | 2.0 | 3.0 | 0.00 | 0.00 | 0.00 | 40 | 1018.7 |
| 20260503212531 | 66 | 119 | 2.0 | 4.0 | 0.00 | 0.00 | 0.00 | 40 | 1019.0 |
| 20260503211526 | 67 | 105 | 2.0 | 6.0 | 0.00 | 0.00 | 0.00 | 38 | 1019.0 |
| 20260503210522 | 67 | 99 | 2.0 | 5.0 | 0.00 | 0.00 | 0.00 | 40 | 1019.1 |
| 20260503205537 | 67 | 72 | 2.0 | 5.0 | 0.00 | 0.00 | 0.00 | 39 | 1019.2 |
| 20260503204552 | 67 | 150 | 2.0 | 7.0 | 0.00 | 0.00 | 0.00 | 40 | 1019.4 |
| 20260503203547 | 68 | 45 | 1.0 | 3.0 | 0.00 | 0.00 | 0.00 | 40 | 1019.5 |
| 20260503202522 | 67 | 120 | 1.0 | 6.0 | 0.00 | 0.00 | 0.00 | 42 | 1019.7 |
| 20260503201519 | 67 | 175 | 1.0 | 2.0 | 0.00 | 0.00 | 0.00 | 42 | 1020.0 |
| 20260503200533 | 68 | 164 | 2.0 | 3.0 | 0.00 | 0.00 | 0.00 | 40 | 1020.1 |
| 20260503195528 | 67 | 140 | 2.0 | 7.0 | 0.00 | 0.00 | 0.00 | 40 | 1020.3 |
| 20260503194524 | 69 | 105 | 3.0 | 7.0 | 0.00 | 0.00 | 0.00 | 38 | 1020.6 |
| 20260503193519 | 68 | 155 | 2.0 | 7.0 | 0.00 | 0.00 | 0.00 | 40 | 1020.7 |
| 20260503192534 | 67 | 73 | 2.0 | 6.0 | 0.00 | 0.00 | 0.00 | 39 | 1020.9 |
| 20260503191529 | 68 | 49 | 2.0 | 4.0 | 0.00 | 0.00 | 0.00 | 41 | 1021.2 |
| 20260503190524 | 67 | 142 | 3.0 | 11.0 | 0.00 | 0.00 | 0.00 | 41 | 1021.3 |
| 20260503185519 | 67 | 122 | 3.0 | 9.0 | 0.00 | 0.00 | 0.00 | 40 | 1021.3 |
| 20260503184534 | 67 | 119 | 2.0 | 4.0 | 0.00 | 0.00 | 0.00 | 39 | 1021.5 |
| 20260503183529 | 65 | 128 | 2.0 | 8.0 | 0.00 | 0.00 | 0.00 | 40 | 1021.6 |
| 20260503182524 | 66 | 148 | 3.0 | 7.0 | 0.00 | 0.00 | 0.00 | 40 | 1021.8 |
| 20260503181520 | 66 | 28 | 2.0 | 4.0 | 0.00 | 0.00 | 0.00 | 45 | 1021.8 |
| 20260503180535 | 64 | 187 | 4.0 | 11.0 | 0.00 | 0.00 | 0.00 | 48 | 1021.8 |
| 20260503175550 | 64 | 182 | 3.0 | 7.0 | 0.00 | 0.00 | 0.00 | 47 | 1021.9 |
| 20260503174525 | 64 | 161 | 2.0 | 5.0 | 0.00 | 0.00 | 0.00 | 47 | 1022.2 |
| 20260503173520 | 64 | 178 | 6.0 | 13.0 | 0.00 | 0.00 | 0.00 | 50 | 1022.3 |
| 20260503172555 | 64 | 156 | 2.0 | 3.0 | 0.00 | 0.00 | 0.00 | 48 | 1022.4 |
| 20260503171530 | 64 | 140 | 2.0 | 6.0 | 0.00 | 0.00 | 0.00 | 49 | 1022.5 |
| 20260503170545 | 63 | 171 | 4.0 | 8.0 | 0.00 | 0.00 | 0.00 | 49 | 1022.6 |